星链-4659 (STARLINK-4659 )

导读

STARLINK-4659是美国太空探索技术公司星链计划中的低轨通信卫星,于2022年12月28日发射入轨,归属美国。它是星链星座组网建设的组成部分,加入近地轨道卫星网络,为全球提供互联网宽带接入服务,推进星链系统全球覆盖与服务能力的构建,支撑卫星互联网服务落地。

Basic Information
目录编号:
54841
目录名称:
STARLINK-4659
国际标识:
2022-177X
轨道中心:
EARTH
卫星名称:
星链-4659
卫星全名:
星链-4659 (STARLINK-4659 )
卫星状态:
在轨 (已飞行1354 天)
发射日期:
2022-12-28 UTC
国别 :
美国 (US)
星等 :
--
This satellite is enrolled in the Space Conjunction Data Service (SCDS) and the current flight risk assessment level is: No High Risk
Orbit Information
数据来源 国际轨道数据 AOE轨道数据
星历时间 2026-09-12T11:04:05+0800
8小时前
查看轨道信息
2026-09-09T22:00:00+0800
2天前
查看轨道信息
半长轴 6861.201km 6861.16km
偏心率 0.0001346 0.0000266
轨道倾角 43.005° 43.003°
近地点辐角 263.025° 338.603°
升交点赤经 160.009° 174.382°
平近点角 97.045° 52.163°
近地点 482.14km 482.84km
远地点 483.988km 483.206km
周期 94.267分钟 94.266分钟
每日圈数 15.275752 15.27589
Detailed Information
固有亮度:
5
最大亮度:
2.5
卫星平台:
Starlink v1.5
覆盖范围:
全球
运营商:
太空探索技术公司
运营商所在国:
美国
制造商(研发单位):
太空探索技术公司
制造商所在国:
美国
使用方式:
暂无
Satellite Introduction
星链(Starlink)计划是由太空探索技术公司(SpaceX)提出的一个巨型低轨卫星互联网星座项目,计划在2019年至2024年间在太空搭建由约1.2万颗卫星组成的“星链”网络,其中1584颗将部署在地球上空550千米处的近地轨道,并从2020年开始工作。该卫星仍在工作。
2D Orbit Map
3D Orbit Map
Orbit Altitude Analysis Chart
Orbit Inclination Analysis Chart
Orbit Comprehensive Analysis Chart
View Comprehensive Chart
Conjunction Data List
Event ID Objects TCA Miss Dist (km) Collision Risk Probability Collision Risk Index (CRI) Action
CDM_260914-015005-484106-793821
2026-09-14T
01:50:59+0000
0.470 km
远距离
1.259241E-4 高风险 0.77
CDM_260913-152305-484106-703222
2026-09-13T
15:23:06+0000
0.731 km
远距离
4.825214E-5 中风险 0.69
CDM_260914-072005-484106-793821
2026-09-14T
07:20:31+0000
0.693 km
远距离
4.296975E-5 中风险 0.68
CDM_260905-022505-484106-074922
OBJECT E (60749)
2026-09-05T
02:25:30+0000
0.986 km
远距离
2.787417E-5 中风险 0.64
CDM_260914-063105-484106-396821
2026-09-14T
06:31:54+0000
1.045 km
极远距离
9.088486E-6 低风险 0.54
CDM_260913-100505-484106-306521
2026-09-13T
10:05:01+0000
0.884 km
远距离
8.386976E-6 低风险 0.53
CDM_260914-013505-484106-703221
2026-09-14T
01:35:06+0000
1.479 km
极远距离
4.5088E-6 低风险 0.48
CDM_260905-013805-484106-074922
OBJECT E (60749)
2026-09-05T
01:38:22+0000
1.766 km
极远距离
3.948294E-6 低风险 0.47
CDM_260914-001605-484106-793822
2026-09-14T
00:16:50+0000
1.919 km
极远距离
1.626354E-6 低风险 0.39
CDM_260913-122605-484106-306521
2026-09-13T
12:26:14+0000
1.468 km
极远距离
1.593122E-6 低风险 0.39
Miss Distance Evolution Trend with All Objects
Collision Probability Evolution Trend with All Objects